www.pogodaiklimat.ru

Погода и климат >> Архив погоды >> Малайзия >> Bintulu


ПОГОДА в Bintulu

  • Прогноз погоды в Bintulu
  • Монитор погоды в Bintulu
  • Климат города

АРХИВ ПОГОДЫ в Bintulu

Время (UTC), дата Ветер
(напр.,м/с)
 
Видим.   Явления Облачность Т
(С)
Тd
(С)
f
(%)
Тe
(С)
Тes
(С)
Комфортность P
(гПа)
Po
(гПа)
Тmin
(С)
Tmax
(С)
R
(мм)
R24
(мм)
S
(см)
09 11.08 СЗ 3 12 км мгла 9/1 450 м
[Cb cap Ac trans Ci fib]
+31.6 +27.2 78 +50 +52 опасность
перегрева
1006.4 1003.7
12 11.08 СЗ 1 12 км мгла 9/3 480 м
[Sc Ac trans Ci fib]
+28.8 +26.9 89 +45 +45 опасность
перегрева
1008.0 1005.3 +31.9
15 11.08 В 2 10 км дымка 9/4 30 м
[Sc Ac trans Ci fib]
+26.3 +25.9 98 +39 +39 очень
душно
1009.8 1007.1
18 11.08 В 2 10 км дымка 9/4 30 м
[Sc Ac trans Ci fib]
+26.1 +25.8 98 +38 +38 очень
душно
1008.9 1006.2
21 11.08 В 2 10 км гроза без осадков 9/6 30 м
[Cb cap Ac As]
+25.5 +25.2 98 +37 +37 очень
душно
1008.6 1005.9
00 12.08 ЮВ 3 6000 м дымка {гроза} 9/4 <50 м
[Sc Ac trans Ci fib]
+26.0 +25.4 97 +38 +39 очень
душно
1009.6 1006.9 +24.4
03 12.08 З 2 10 км мгла 9/4 480 м
[Cu med, cong Ac lent Ci fib]
+30.9 +26.3 77 +47 +54 опасность
перегрева
1009.3 1006.6
06 12.08 Ю 2 12 км мгла 9/4 480 м
[Cu med, cong Ac lent Ci fib]
+33.9 +26.0 63 +49 +56 опасность
перегрева
1007.0 1004.3
09 12.08 СЗ 3 10 км мгла 9/3 480 м
[Cu med, cong Ac lent Ci fib]
+32.0 +27.7 78 +52 +53 опасность
перегрева
1006.4 1003.7
12 12.08 З 1 10 км мгла 9/1 480 м
[Cu hum Ac lent Ci fib]
+28.8 +27.1 91 +46 +46 опасность
перегрева
1008.1 1005.4 +34.2
15 12.08 штиль 0 18 км 9/3 480 м
[Sc Ac lent Ci fib]
+26.7 +26.3 98 +41 +41 опасность
перегрева
1009.7 1007.0
18 12.08 ЮВ 1 18 км 9/4 150 м
[Sc Ac trans Ci fib]
+26.4 +26.1 98 +39 +39 очень
душно
1009.4 1006.7
21 12.08 В 1 18 км 9/3 480 м
[Sc Ac trans Ci fib]
+25.6 +25.2 98 +37 +37 очень
душно
1009.0 1006.3
00 13.08 ЮВ 3 1400 м дымка 9/5 <50 м
[Frnb Ac lent Ci fib]
+26.1 +25.8 98 +38 +39 очень
душно
1009.6 1006.9 +25.0
03 13.08 З 2 10 км мгла 9/3 480 м
[Cu med, cong Ac lent Ci fib]
+31.6 +26.5 74 +48 +55 опасность
перегрева
1009.7 1007.0
06 13.08 С 3 10 км мгла 9/4 480 м
[Cu med, cong Ac lent Ci fib]
+33.8 +28.1 72 +55 +60 опасность
перегрева
1008.1 1005.4
09 13.08 СЗ 3 10 км мгла 9/1 480 м
[Cu hum Ac lent Ci fib]
+33.1 +27.7 73 +53 +54 опасность
перегрева
1007.3 1004.6
12 13.08 Ю 1 8000 м мгла 8/1 480 м
[Sc Ac lent Ci fib]
+28.8 +27.2 91 +46 +46 опасность
перегрева
1008.8 1006.1 +34.2
15 13.08 штиль 0 8000 м дымка 9/3 30 м
[Sc Ac lent Ci fib]
+26.8 +26.4 98 +41 +41 опасность
перегрева
1010.0 1007.3
18 13.08 ЮВ 3 6000 м дымка 9/5 30 м
[Sc Ac trans Ci fib]
+26.7 +26.3 98 +41 +41 опасность
перегрева
1009.1 1006.4
21 13.08 штиль 0 6000 м дымка 9/5 30 м
[Sc Ac trans Ci fib]
+26.0 +25.9 99 +38 +38 очень
душно
1008.4 1005.7
00 14.08 ЮВ 2 4000 м дымка 9/4 30 м
[St Ac trans Ci fib]
+27.2 +26.7 97 +42 +43 опасность
перегрева
1009.9 1007.2 +26.0
03 14.08 З 2 8000 м мгла 9/1 420 м
[Cu hum Ac lent Ci fib]
+32.2 +26.3 71 +48 +58 опасность
перегрева
1009.6 1006.9
06 14.08 СЗ 2 8000 м мгла 9/4 480 м
[Cu med, cong Ac lent Ci fib]
+34.8 +28.4 70 +57 +63 опасность
перегрева
1007.4 1004.7
09 14.08 С 3 8000 м мгла 9/3 480 м
[Cu hum Ac trans Ci fib]
+33.1 +28.0 75 +54 +55 опасность
перегрева
1006.2 1003.5
12 14.08 СВ 1 4000 м мгла 9/1 540 м
[Cu hum Ac lent Ci fib]
+28.4 +26.7 91 +44 +44 опасность
перегрева
1007.3 1004.6 +35.0
15 14.08 СВ 1 3000 м дымка 9/4 30 м
[St Ac lent Ci fib]
+26.8 +26.2 97 +41 +41 опасность
перегрева
1008.8 1006.1
18 14.08 штиль 0 3000 м дымка 9/4 <50 м
[Frnb Ac trans Ci fib]
+26.6 +26.4 99 +40 +40 очень
душно
1008.8 1006.1
21 14.08 В 2 2500 м дымка 9/5 <50 м
[Frnb Ac trans Ci fib]
+26.3 +26.0 98 +39 +39 очень
душно
1009.2 1006.5
00 15.08 ЮВ 2 1500 м дымка 9/5 30 м
[St Ac lent Ci fib]
+27.5 +26.8 96 +43 +44 опасность
перегрева
1010.2 1007.5 +26.0
03 15.08 СЗ 1 6000 м мгла 9/6 420 м
[Cb cap Ac lent Ci fib]
+31.4 +26.3 74 +47 +53 опасность
перегрева
1009.4 1006.7
06 15.08 С 1 8000 м гроза без осадков {ливн. осадки} 9/5 420 м
[Cb cap Ac trans Ci fib]
+31.2 +27.4 80 +50 +57 опасность
перегрева
1007.8 1005.1 0.6
09 15.08 СЗ 3 8000 м мгла {гроза, ливн. осадки} 9/5 450 м
[Cb cap Ac lent Ci fib]
+31.6 +27.0 77 +50 +50 опасность
перегрева
1006.6 1003.9
12 15.08 В 1 6000 м мгла {гроза} 9/3 480 м
[Sc Ac trans Ci fib]
+28.5 +27.0 92 +45 +45 опасность
перегрева
1007.6 1004.9 +33.3
15 15.08 В 2 8000 м мгла 9/1 480 м
[Sc Ac trans Ci fib]
+26.2 +25.2 94 +38 +38 очень
душно
1009.0 1006.3
18 15.08 штиль 0 8000 м мгла 9/3 480 м
[Sc Ac trans Ci fib]
+25.1 +23.9 93 +34 +34 очень
душно
1008.0 1005.3
21 15.08 В 2 8000 м гроза без осадков 9/4 450 м
[Cb cap Ac trans Ci ing]
+24.8 +23.7 94 +34 +34 очень
душно
1007.9 1005.2
00 16.08 ЮВ 2 8000 м гроза без осадков 9/4 450 м
[Cb cap Ac trans Ci sp]
+25.2 +24.2 94 +35 +36 очень
душно
1008.6 1005.9 +24.3 0.6
03 16.08 В 2 8000 м мгла 9/5 480 м
[Cu med, cong Ac lent Ci fib]
+30.7 +26.8 80 +48 +54 опасность
перегрева
1008.2 1005.5
06 16.08 СЗ 4 8000 м мгла 9/3 480 м
[Cu med, cong Ac lent Ci fib]
+33.4 +26.7 68 +51 +56 опасность
перегрева
1005.8 1003.1
09 16.08 СЗ 4 6000 м мгла 9/3 450 м
[Cb cap Ac trans Ci sp]
+31.4 +26.9 77 +49 +50 опасность
перегрева
1005.7 1003.0
12 16.08 Ю 2 8000 м гроза без осадков 9/6 420 м
[Cb cap Ac trans Ci fib]
+27.1 +25.0 88 +39 +39 очень
душно
1007.8 1005.1 +33.5
15 16.08 В 2 8000 м мгла {гроза} 9/4 480 м
[Sc Ac trans Ci fib]
+24.8 +23.9 95 +34 +34 очень
душно
1008.9 1006.2
18 16.08 ЮВ 2 8000 м мгла 9/3 480 м
[Sc Ac trans Ci fib]
+24.8 +22.9 89 +33 +33 очень
душно
1007.5 1004.8
21 16.08 ЮВ 4 8000 м мгла 9/4 480 м
[Sc Ac trans Ci fib]
+24.5 +22.6 89 +32 +32 очень
душно
1006.8 1004.1
00 17.08 ЮВ 3 10 км мгла 9/1 480 м
[Sc Ac lent Ci fib]
+25.0 +23.5 91 +34 +35 очень
душно
1008.3 1005.6 +24.0
03 17.08 ЮВ 3 8000 м мгла 9/4 480 м
[Cu med, cong Ac lent Ci fib]
+30.1 +26.1 79 +45 +51 опасность
перегрева
1007.8 1005.1
06 17.08 Ю 2 8000 м мгла 9/4 480 м
[Cu med, cong Ac lent Ci fib]
+32.9 +25.4 65 +47 +54 опасность
перегрева
1005.3 1002.6
09 17.08 СЗ 2 8000 м мгла 9/3 480 м
[Cu med, cong Ac lent Ci fib]
+33.1 +26.6 69 +50 +52 опасность
перегрева
1004.8 1002.1
12 17.08 штиль 0 8000 м мгла 9/3 480 м
[Sc Ac lent Ci fib]
+28.2 +26.4 90 +43 +43 опасность
перегрева
1006.5 1003.8 +33.7
15 17.08 В 1 7000 м мгла 9/1 480 м
[Sc Ac lent Ci fib]
+26.5 +25.9 97 +40 +40 очень
душно
1008.2 1005.5
18 17.08 ЮВ 3 6000 м мгла 9/3 480 м
[Sc Ac trans Ci fib]
+26.1 +25.7 98 +38 +38 очень
душно
1007.4 1004.7
21 17.08 ЮВ 3 10 км мгла 9/1 480 м
[Sc Ac trans Ci fib]
+26.0 +23.8 88 +36 +36 очень
душно
1006.8 1004.1
00 18.08 ЮВ 4 8000 м мгла 9/1 600 м
[Cu hum Ac lent Ci fib]
+26.7 +24.4 87 +37 +39 очень
душно
1008.4 1005.7 +25.0
03 18.08 Ю 3 12 км мгла 8/1 480 м
[Cu hum Ac lent Ci fib]
+31.8 +24.7 66 +45 +53 опасность
перегрева
1007.9 1005.2

 

Местоположение метеостанции Bintulu (Малайзия): широта 3.20 долгота 113.03 высота над уровнем моря 5 м.

В архиве по умолчанию представлена погода в Bintulu за последнюю неделю. Архивные данные за месяц целиком и за предыдущие месяцы, начиная с января 2011 года, Вы можете получить, выбрав интересующий диапазон дат из раскрывающегося списка и нажав кнопку "Ввод!".


*Определитесь, кто Вы:
робот инопланетянин человек

Внимание! Время в таблицах - всемирное. Для получения местного времени необходимо прибавить поправку, которая в Bintulu равна 8 ч.

Смотрите также архив погоды в соседних городах и на ближайших метеорологических станциях:

Погода в Miri (Малайзия) (164 км)
Погода в Sibu (Малайзия) (165 км)
Погода в Putussibau (Индонезия) (263 км)
Погода в Brunei Airport (Бруней) (285 км)
Погода в Longbawan (Индонезия) (300 км)
Погода в Labuan (Малайзия) (339 км)
Погода в Kuching (Малайзия) (356 км)
Погода в Sintang (Индонезия) (381 км)
Погода в Nangapinoh (Индонезия) (419 км)
Погода в Paloh (Индонезия) (444 км)

Пояснения к столбцам:

Ветер - указаны скорость ветра в м/с - средняя за 10 мин, порывы в срок и между сроками (в фигурных скобках) и направление, откуда дует ветер: С - северный, СВ - северо-восточный, В - восточный, ЮВ - юго-восточный, Ю - южный, ЮЗ - юго-западный, З - западный, СЗ - северо-западный.
Видимость - горизонтальная дальность видимости в метрах или километрах. При видимости от 1 до 10 км при отсутствии осадков обычно наблюдается дымка, при ухудшении видимости до 1 км и менее - туман. В сухую погоду видимость может ухудшаться дымом, пылью или мглою.
Явления - указаны атмосферные явления, наблюдавшиеся в срок или в последний час перед сроком; фигурными скобками обозначены явления, наблюдавшиеся между сроками (за 1-3 часа до срока); квадратными скобками обозначены град или гололедные отложения с указанием их диаметра в мм.
Облачность - указаны через наклонную черту общая и нижняя облачность в баллах и высота нижней границы облаков в метрах; квадратными скобками обозначены формы облаков: Ci - перистые, Cs - перисто-слоистые, Cc - перисто-кучевые, Ac - высококучевые, As - высокослоистые, Sc - слоисто-кучевые, Ns - слоисто-дождевые, Cu - кучевые, Cb - кучево-дождевые. Подробнее классификацию облаков см. в Атласе облаков (PDF).
T - Температура воздуха - температура, измеренная на высоте 2 м над землей.
Td - Температура точки росы - температура, при понижении до которой содержащийся в воздухе водяной пар достигнет насыщения.
f - Относительная влажность воздуха - влажноcть воздуха, измеренная на высоте 2 м над землей.
Te - Эффективная температура - температура, которую ощущает одетый по сезону человек в тени. Характеристика душности погоды. При расчете учитывается влияние влажности воздуха и скорости ветра на теплоощущения человека.
Tes - Эффективная температура на солнце - температура, которую ощущает человек, с поправкой на солнечный нагрев. Характеристика знойности погоды. Зависит от высоты солнца над горизонтом, облачности и скорости ветра. Ночью, в пасмурную погоду, а также при ветре 12 м/с и более поправка равна нулю.
P - Атмосферное давление - приведенное к уровню моря атмосферное давление.
Po - Атмосферное давление - измеренное на уровне метеостанции атмосферное давление.
Tmin - Минимальная температура - минимум температуры воздуха на высоте 2 м над землей.
Tmax - Максимальная температура - максимум температуры воздуха на высоте 2 м над землей.
R - Количество осадков - Количество выпавших осадков за период времени, мм. При наведении курсора мыши на число - период времени, за который выпало указанное количество осадков.
R24 - Количество осадков - Количество выпавших осадков за 24 часа, мм.
S - Снежный покров - Высота снежного покрова, см. При наведении курсора мыши на число - состояние снежного покрова и степень покрытия местности в баллах.